This is the latest recevied weather packets stored in our database for station/object N2ZVN. If no packets are shown the sender has not sent any weather packets the latest 1 day(s).
| Time | Temp. | Humidity | Pressure | Rain* | Wind** | Luminosity | Snow |
|---|---|---|---|---|---|---|---|
| 1778044287 | 8.33° C | 97% | 1010.6 hPa | 3.56 mm | - | 0 W/m² | - |
| 1778043985 | 8.33° C | 97% | 1010.4 hPa | 3.56 mm | - | 0 W/m² | - |
| 1778043682 | 8.89° C | 97% | 1010.3 hPa | 3.05 mm | - | 0 W/m² | - |
| 1778043379 | 8.89° C | 97% | 1010.5 hPa | 4.32 mm | - | 0 W/m² | - |
| 1778042470 | 8.89° C | 97% | 1010.4 hPa | 1.78 mm | - | 0 W/m² | - |
| 1778042167 | 8.89° C | 97% | 1010.3 hPa | 3.05 mm | - | 0 W/m² | - |
| 1778041865 | 8.89° C | 97% | 1010 hPa | 1.27 mm | - | 0 W/m² | - |
| 1778041262 | 8.89° C | 97% | 1009.9 hPa | 1.78 mm | - | 0 W/m² | - |
| 1778039444 | 8.89° C | 97% | 1010.1 hPa | 3.05 mm | - | 0 W/m² | - |
| 1778039142 | 8.89° C | 97% | 1010.2 hPa | 1.78 mm | - | 0 W/m² | - |
| 1778038838 | 8.89° C | 97% | 1010.3 hPa | 1.27 mm | - | 0 W/m² | - |
| 1778038536 | 8.89° C | 97% | 1010.2 hPa | 3.05 mm | - | 0 W/m² | - |
| 1778037930 | 8.89° C | 97% | 1010.6 hPa | 1.78 mm | - | 0 W/m² | - |
| 1778037627 | 8.89° C | 97% | 1010.5 hPa | 3.05 mm | - | 0 W/m² | - |
| 1778037021 | 8.89° C | 97% | 1010.3 hPa | 1.78 mm | - | 0 W/m² | - |
| 1778036416 | 8.89° C | 97% | 1010.5 hPa | 0 mm | - | 0 W/m² | - |
| 1778034899 | 8.89° C | 96% | 1010.8 hPa | 0 mm | - | 0 W/m² | - |
| 1778033991 | 8.33° C | 96% | 1010.8 hPa | 1.27 mm | - | 0 W/m² | - |
| 1778033688 | 8.33° C | 96% | 1010.6 hPa | 0 mm | - | 0 W/m² | - |
| 1778033385 | 8.33° C | 96% | 1010.7 hPa | 0 mm | - | 0 W/m² | - |
| 1778033083 | 8.33° C | 96% | 1010.6 hPa | 0 mm | - | 0 W/m² | - |
| 1778032780 | 8.33° C | 96% | 1010.7 hPa | 0 mm | - | 0 W/m² | - |
| 1778032477 | 8.33° C | 96% | 1010.6 hPa | 0 mm | - | 0 W/m² | - |
| 1778032174 | 8.33° C | 96% | 1010.5 hPa | 0 mm | - | 0 W/m² | - |
| 1778031871 | 8.33° C | 96% | 1010.5 hPa | 1.78 mm | - | 0 W/m² | - |
* Rain latest hour (hover to see other rain measurements)
** Current wind speed in m/s (hover to see current wind gust speed)